Weather History for KD39 - August, 2013

Change the Weather History Date:

Saturday, August 24, 2013

  Actual Average (KGHW) Record (KGHW)
Temperature  
Mean Temperature 79 °F -  
Max Temperature 90 °F 78 °F 94 °F (1949)
Min Temperature 68 °F 55 °F 45 °F (1956)
Cooling Degree Days 14    
Growing Degree Days 29 (Base 50)    
Moisture  
Dew Point 69 °F    
Average Humidity 74    
Maximum Humidity 93    
Minimum Humidity 48    
Precipitation  
Precipitation 0.00 in - - ()
Sea Level Pressure  
Sea Level Pressure 29.95 in    
Wind  
Wind Speed 13 mph (SSE)    
Max Wind Speed 26 mph    
Max Gust Speed 33 mph    
Visibility 10 miles    
Events Thunderstorm    
Averages and records for this station are not official NWS values.
T = Trace of Precipitation, MM = Missing Value Source: NWS Daily Summary

Daily Weather History Graph

Daily Weather History Graph

Search for Another Location

Airport or City:

Trip Planner

Search our weather history database for the weather conditions in past years. The results will help you decide how hot, cold, wet, or windy it might be!

Date:

Astronomy

Aug. 24, 2013 Rise Set
Actual Time 6:31 AM CDT 8:11 PM CDT
Civil Twilight 5:59 AM CDT 8:43 PM CDT
Nautical Twilight 5:21 AM CDT 9:21 PM CDT
Astronomical Twilight 4:40 AM CDT 10:02 PM CDT
Moon 9:49 PM CDT (8/24) 10:47 AM CDT (8/24)
Length of Visible Light 14h 43m
Length of Day
13h 40m
Waning Gibbous, 84% of the Moon is Illuminated
Aug 24
Waning Gibbous
Aug 28
Last Quarter
Sep 5
New
Sep 12
First Quarter
Sep 19
Full

Hourly Weather History & Observations

Time (CDT) Temp. Heat Index Dew Point Humidity Pressure Visibility Wind Dir Wind Speed Gust Speed Precip Events Conditions
12:12 AM 70.7 °F - 66.9 °F 88% 30.02 in 10.0 mi SE 10.4 mph - N/A   Mostly Cloudy
12:32 AM 70.3 °F - 66.7 °F 88% 30.02 in 10.0 mi SE 8.1 mph - N/A   Mostly Cloudy
12:53 AM 70.2 °F - 66.7 °F 89% 30.02 in 10.0 mi SSE 8.1 mph - N/A   Scattered Clouds
1:12 AM 69.8 °F - 66.7 °F 90% 30.02 in 10.0 mi SSE 8.1 mph - N/A   Clear
1:32 AM 69.8 °F - 66.7 °F 90% 30.02 in 10.0 mi SE 9.2 mph - N/A   Clear
1:53 AM 70.0 °F - 66.9 °F 90% 30.02 in 10.0 mi SE 9.2 mph - N/A   Mostly Cloudy
2:12 AM 70.3 °F - 67.1 °F 89% 30.02 in 10.0 mi SE 8.1 mph - N/A   Overcast
2:32 AM 69.8 °F - 67.1 °F 91% 30.02 in 10.0 mi SE 8.1 mph - N/A   Mostly Cloudy
2:53 AM 69.8 °F - 67.1 °F 91% 30.02 in 10.0 mi SE 8.1 mph - N/A   Clear
3:12 AM 69.8 °F - 67.1 °F 91% 30.02 in 10.0 mi SE 6.9 mph - N/A   Clear
3:32 AM 69.4 °F - 67.1 °F 92% 30.02 in 10.0 mi SE 8.1 mph - N/A   Clear
3:53 AM 68.9 °F - 66.9 °F 93% 30.02 in 10.0 mi SE 6.9 mph - N/A   Clear
4:12 AM 68.9 °F - 66.7 °F 93% 30.02 in 10.0 mi SE 8.1 mph - N/A   Clear
4:32 AM 68.9 °F - 66.7 °F 93% 30.02 in 10.0 mi SE 9.2 mph - N/A   Clear
4:53 AM 68.9 °F - 66.7 °F 93% 30.01 in 10.0 mi SE 9.2 mph - N/A   Scattered Clouds
5:12 AM 68.5 °F - 66.6 °F 93% 30.01 in 10.0 mi SE 10.4 mph - N/A   Scattered Clouds
5:32 AM 68.5 °F - 66.6 °F 93% 30.01 in 10.0 mi SE 10.4 mph - N/A   Clear
5:52 AM 68.5 °F - 66.4 °F 93% 30.01 in 10.0 mi SSE 8.1 mph - N/A   Scattered Clouds
6:12 AM 68.4 °F - 66.4 °F 93% 30.01 in 10.0 mi SSE 9.2 mph - N/A   Mostly Cloudy
6:33 AM 68.5 °F - 66.4 °F 93% 30.01 in 10.0 mi SSE 8.1 mph - N/A   Mostly Cloudy
6:52 AM 68.5 °F - 66.4 °F 93% 30.01 in 10.0 mi SSE 11.5 mph - N/A   Scattered Clouds
7:12 AM 68.9 °F - 66.4 °F 92% 30.00 in 10.0 mi SSE 11.5 mph - N/A   Scattered Clouds
7:33 AM 69.3 °F - 66.6 °F 91% 30.00 in 10.0 mi SE 9.2 mph - N/A   Clear
7:52 AM 70.0 °F - 66.7 °F 89% 30.00 in 10.0 mi SE 8.1 mph - N/A   Clear
8:12 AM 71.8 °F - 67.1 °F 85% 30.01 in 10.0 mi SSE 12.7 mph - N/A Thunderstorm Clear
8:33 AM 73.4 °F - 67.1 °F 81% 30.00 in 10.0 mi SSE 12.7 mph 18.4 mph N/A   Clear
8:52 AM 74.5 °F - 67.5 °F 79% 29.99 in 10.0 mi SSE 15.0 mph 21.9 mph N/A   Clear
9:12 AM 76.6 °F - 68.0 °F 75% 29.98 in 10.0 mi SSE 19.6 mph 25.3 mph N/A   Clear
9:33 AM 73.8 °F - 67.8 °F 82% 29.99 in 10.0 mi SSE 12.7 mph 20.7 mph N/A   Clear
9:52 AM 74.1 °F - 68.0 °F 81% 29.98 in 10.0 mi SSE 15.0 mph 20.7 mph N/A   Clear
10:12 AM 75.6 °F - 68.2 °F 78% 29.98 in 10.0 mi SSE 15.0 mph 20.7 mph N/A   Scattered Clouds
10:33 AM 79.0 °F - 68.4 °F 70% 29.97 in 10.0 mi SSE 18.4 mph 23.0 mph N/A   Scattered Clouds
10:52 AM 80.2 °F 83.0 °F 68.2 °F 67% 29.97 in 10.0 mi SSE 18.4 mph 25.3 mph N/A   Scattered Clouds
11:12 AM 81.0 °F 83.8 °F 68.2 °F 65% 29.97 in 10.0 mi SSE 16.1 mph 21.9 mph N/A   Scattered Clouds
11:33 AM 82.8 °F 85.5 °F 67.8 °F 60% 29.95 in 10.0 mi SSE 23.0 mph 26.5 mph N/A   Clear
11:52 AM 83.7 °F 86.7 °F 68.2 °F 59% 29.95 in 10.0 mi South 17.3 mph 26.5 mph N/A   Clear
12:12 PM 85.1 °F 89.1 °F 69.1 °F 59% 29.94 in 10.0 mi SSE 23.0 mph 27.6 mph N/A   Clear
12:33 PM 86.2 °F 89.7 °F 68.5 °F 55% 29.94 in 10.0 mi SSE 18.4 mph 23.0 mph N/A   Clear
12:52 PM 87.3 °F 90.5 °F 67.5 °F 52% 29.94 in 10.0 mi South 24.2 mph 29.9 mph N/A   Clear
1:12 PM 87.8 °F 90.7 °F 67.1 °F 50% 29.94 in 10.0 mi SSE 23.0 mph 29.9 mph N/A   Clear
1:33 PM 88.3 °F 90.9 °F 66.6 °F 48% 29.92 in 10.0 mi South 23.0 mph 29.9 mph N/A   Clear
1:52 PM 88.5 °F 91.9 °F 67.5 °F 50% 29.92 in 10.0 mi SSE 20.7 mph 33.4 mph N/A   Clear
2:12 PM 89.1 °F 92.9 °F 68.2 °F 50% 29.92 in 10.0 mi SSE 24.2 mph 31.1 mph N/A   Clear
2:33 PM 89.1 °F 92.5 °F 67.8 °F 49% 29.92 in 10.0 mi SSE 23.0 mph 32.2 mph N/A   Clear
2:52 PM 89.6 °F 93.4 °F 68.0 °F 49% 29.91 in 10.0 mi SSE 24.2 mph 28.8 mph N/A   Clear
3:12 PM 89.6 °F 93.0 °F 67.6 °F 48% 29.91 in 10.0 mi South 21.9 mph 33.4 mph N/A   Clear
3:32 PM 90.0 °F 94.1 °F 68.7 °F 49% 29.90 in 10.0 mi SSE 21.9 mph 29.9 mph N/A   Clear
3:52 PM 88.9 °F 93.0 °F 68.5 °F 51% 29.89 in 10.0 mi SSE 24.2 mph 33.4 mph N/A   Clear
4:12 PM 88.2 °F 92.5 °F 69.3 °F 53% 29.88 in 10.0 mi South 26.5 mph 31.1 mph N/A   Clear
4:32 PM 88.9 °F 93.8 °F 69.8 °F 53% 29.88 in 10.0 mi SSE 25.3 mph 33.4 mph N/A   Clear
4:52 PM 88.7 °F 93.5 °F 69.8 °F 53% 29.88 in 10.0 mi SSE 24.2 mph 31.1 mph N/A   Clear
5:12 PM 88.5 °F 93.5 °F 69.8 °F 54% 29.88 in 10.0 mi SSE 24.2 mph 28.8 mph N/A   Clear
5:32 PM 87.3 °F 92.0 °F 69.6 °F 56% 29.88 in 10.0 mi South 21.9 mph 28.8 mph N/A   Clear
5:52 PM 86.4 °F 91.1 °F 70.2 °F 58% 29.88 in 10.0 mi South 20.7 mph 26.5 mph N/A   Clear
6:12 PM 86.0 °F 91.1 °F 70.7 °F 60% 29.88 in 10.0 mi South 18.4 mph 25.3 mph N/A   Clear
6:32 PM 85.3 °F 90.4 °F 70.7 °F 62% 29.88 in 10.0 mi SSE 17.3 mph 28.8 mph N/A   Clear
6:52 PM 84.2 °F 89.0 °F 70.9 °F 64% 29.88 in 10.0 mi SSE 17.3 mph 23.0 mph N/A   Clear
7:13 PM 83.3 °F 87.9 °F 71.1 °F 66% 29.88 in 10.0 mi SSE 15.0 mph 20.7 mph N/A   Clear
7:32 PM 82.6 °F 87.3 °F 71.4 °F 69% 29.87 in 10.0 mi SSE 13.8 mph 18.4 mph N/A   Clear
7:52 PM 81.5 °F 85.7 °F 71.2 °F 71% 29.87 in 10.0 mi SSE 13.8 mph 18.4 mph N/A   Clear
8:13 PM 80.6 °F 84.6 °F 71.6 °F 74% 29.88 in 10.0 mi SSE 11.5 mph - N/A   Clear
8:32 PM 79.9 °F - 71.8 °F 76% 29.88 in 10.0 mi SSE 11.5 mph - N/A   Clear
8:52 PM 79.2 °F - 72.0 °F 78% 29.88 in 10.0 mi SSE 10.4 mph - N/A   Clear
9:13 PM 78.8 °F - 72.0 °F 79% 29.88 in 10.0 mi SSE 10.4 mph - N/A   Clear
9:32 PM 78.4 °F - 72.0 °F 80% 29.88 in 10.0 mi South 10.4 mph - N/A   Clear
9:52 PM 78.4 °F - 72.1 °F 81% 29.89 in 10.0 mi South 10.4 mph - N/A   Clear
10:12 PM 78.3 °F - 72.5 °F 82% 29.90 in 10.0 mi South 11.5 mph 16.1 mph N/A   Clear
10:32 PM 78.8 °F - 72.7 °F 81% 29.90 in 10.0 mi South 13.8 mph - N/A   Clear
10:52 PM 79.2 °F - 72.7 °F 80% 29.90 in 10.0 mi SSW 10.4 mph 18.4 mph N/A   Clear
11:12 PM 79.0 °F - 72.7 °F 81% 29.90 in 10.0 mi South 15.0 mph 19.6 mph N/A   Clear
11:32 PM 79.0 °F - 72.5 °F 80% 29.90 in 10.0 mi South 13.8 mph 20.7 mph N/A   Clear
11:52 PM 78.8 °F - 72.5 °F 81% 29.91 in 10.0 mi South 16.1 mph - N/A   Clear